Davis, CA

5:47 AM PST on February 26, 2017 (GMT -0800)
University AP, Davis, CA

Weather History for KEDU - December, 2013

Change the Weather History Date:

Friday, December 13, 2013

  Actual Average (KSMF) Record (KSMF)
Temperature  
Mean Temperature 47 °F -  
Max Temperature 62 °F 52 °F 67 °F (1988)
Min Temperature 32 °F 37 °F 20 °F (1972)
Degree Days  
Heating Degree Days 18    
Moisture  
Dew Point 31 °F    
Average Humidity 65    
Maximum Humidity 93    
Minimum Humidity 27    
Precipitation  
Precipitation 0.03 in - - ()
Sea Level Pressure  
Sea Level Pressure 30.27 in    
Wind  
Wind Speed 1 mph (North)    
Max Wind Speed 9 mph    
Max Gust Speed -    
Visibility 10 miles    
Events      
Averages and records for this station are not official NWS values.
T = Trace of Precipitation, MM = Missing Value Source: NWS Daily Summary

Daily Weather History Graph

Daily Weather History Graph

Search for Another Location

Airport or City:

Trip Planner

Search our weather history database for the weather conditions in past years. The results will help you decide how hot, cold, wet, or windy it might be!

Date:

Astronomy

Dec. 13, 2013 Rise Set
Actual Time 7:16 AM PST 4:46 PM PST
Civil Twilight 6:46 AM PST 5:16 PM PST
Nautical Twilight 6:13 AM PST 5:49 PM PST
Astronomical Twilight 5:41 AM PST 6:22 PM PST
Moon 2:31 PM PST (12/13) 3:46 AM PST (12/13)
Length of Visible Light 10h 29m
Length of Day
9h 30m
Waxing Gibbous, 88% of the Moon is Illuminated
Dec 13
Waxing Gibbous
Dec 17
Full
Dec 25
Last Quarter
Jan 1
New
Jan 7
First Quarter

Hourly Weather History & Observations

Time (PST) Temp. Windchill Dew Point Humidity Pressure Visibility Wind Dir Wind Speed Gust Speed Precip Events Conditions
12:15 AM 35.6 °F - 32.0 °F 87% 30.24 in 9.0 mi Calm Calm - N/A   Clear
12:35 AM 32.0 °F - 30.2 °F 93% 30.24 in 10.0 mi Calm Calm - N/A   Clear
12:55 AM 33.8 °F - 30.2 °F 87% 30.24 in 10.0 mi Calm Calm - N/A   Clear
1:15 AM 33.8 °F - 30.2 °F 87% 30.24 in 10.0 mi Calm Calm - N/A   Clear
1:35 AM 35.6 °F - 30.2 °F 81% 30.24 in 10.0 mi Calm Calm - N/A   Clear
1:55 AM 32.0 °F - 28.4 °F 87% 30.25 in 10.0 mi Calm Calm - N/A   Clear
2:15 AM 32.0 °F - 30.2 °F 93% 30.25 in 10.0 mi Calm Calm - N/A   Clear
2:35 AM 33.8 °F - 32.0 °F 93% 30.25 in 10.0 mi Calm Calm - N/A   Clear
2:55 AM 32.0 °F - 30.2 °F 93% 30.25 in 10.0 mi Calm Calm - N/A   Clear
3:15 AM 32.0 °F - 28.4 °F 87% 30.26 in 10.0 mi Calm Calm - N/A   Clear
3:35 AM 32.0 °F - 28.4 °F 87% 30.26 in 10.0 mi Calm Calm - N/A   Clear
3:55 AM 32.0 °F - 30.2 °F 93% 30.25 in 10.0 mi Calm Calm - N/A   Clear
4:15 AM 32.0 °F - 28.4 °F 87% 30.25 in 10.0 mi Calm Calm - N/A   Clear
4:35 AM 32.0 °F - 28.4 °F 87% 30.25 in 10.0 mi Calm Calm - N/A   Clear
4:55 AM 32.0 °F - 28.4 °F 87% 30.25 in 10.0 mi Calm Calm - N/A   Clear
5:15 AM 32.0 °F - 28.4 °F 87% 30.25 in 10.0 mi Calm Calm - N/A   Clear
5:35 AM 32.0 °F - 28.4 °F 87% 30.26 in 10.0 mi Calm Calm - N/A   Clear
5:55 AM 32.0 °F - 28.4 °F 87% 30.27 in 10.0 mi Calm Calm - N/A   Clear
6:15 AM 32.0 °F - 28.4 °F 87% 30.27 in 10.0 mi Calm Calm - N/A   Clear
6:35 AM 33.8 °F - 28.4 °F 81% 30.27 in 10.0 mi Calm Calm - N/A   Clear
6:55 AM 32.0 °F - 28.4 °F 87% 30.27 in 10.0 mi Calm Calm - N/A   Clear
7:15 AM 32.0 °F 27.5 °F 28.4 °F 87% 30.27 in 10.0 mi North 4.6 mph - N/A   Clear
7:35 AM 33.8 °F 29.6 °F 28.4 °F 81% 30.28 in 10.0 mi North 4.6 mph - N/A   Clear
7:55 AM 33.8 °F - 28.4 °F 81% 30.29 in 10.0 mi Calm Calm - N/A   Clear
8:15 AM 35.6 °F - 28.4 °F 75% 30.29 in 10.0 mi Calm Calm - N/A   Clear
8:35 AM 35.6 °F - 30.2 °F 81% 30.30 in 10.0 mi Calm Calm - N/A   Clear
8:55 AM 39.2 °F - 32.0 °F 75% 30.31 in 10.0 mi Calm Calm - N/A   Clear
9:15 AM 42.8 °F - 32.0 °F 66% 30.31 in 10.0 mi Calm Calm - N/A   Clear
9:35 AM 44.6 °F 40.7 °F 32.0 °F 61% 30.33 in 10.0 mi North 6.9 mph - 0.02 in   Clear
9:55 AM 44.6 °F 40.2 °F 32.0 °F 61% 30.34 in 10.0 mi North 8.1 mph - 0.03 in   Clear
10:15 AM 46.4 °F 41.9 °F 32.0 °F 57% 30.35 in 10.0 mi North 9.2 mph - N/A   Clear
10:35 AM 48.2 °F - 32.0 °F 54% 30.34 in 10.0 mi North 9.2 mph - N/A   Clear
10:55 AM 50.0 °F - 32.0 °F 50% 30.34 in 10.0 mi North 9.2 mph - N/A   Clear
11:15 AM 50.0 °F - 32.0 °F 50% 30.32 in 10.0 mi North 3.5 mph - N/A   Clear
11:35 AM 53.6 °F - 32.0 °F 44% 30.32 in 10.0 mi North 8.1 mph - N/A   Clear
11:55 AM 53.6 °F - 32.0 °F 44% 30.31 in 10.0 mi North 9.2 mph - N/A   Clear
12:15 PM 55.4 °F - 32.0 °F 41% 30.30 in 10.0 mi NNW 8.1 mph - N/A   Clear
12:35 PM 55.4 °F - 32.0 °F 41% 30.29 in 10.0 mi North 8.1 mph - N/A   Clear
12:55 PM 57.2 °F - 32.0 °F 38% 30.28 in 10.0 mi North 5.8 mph - N/A   Clear
1:15 PM 57.2 °F - 32.0 °F 38% 30.27 in 10.0 mi North 4.6 mph - N/A   Clear
1:35 PM 59.0 °F - 30.2 °F 34% 30.26 in 10.0 mi North 8.1 mph - N/A   Clear
1:55 PM 59.0 °F - 28.4 °F 31% 30.25 in 10.0 mi North 6.9 mph - N/A   Clear
2:15 PM 60.8 °F - 28.4 °F 29% 30.25 in 10.0 mi NNW 6.9 mph - N/A   Clear
2:35 PM 60.8 °F - 28.4 °F 29% 30.25 in 10.0 mi NNW 4.6 mph - N/A   Clear
2:55 PM 62.6 °F - 30.2 °F 30% 30.25 in 10.0 mi Calm Calm - N/A   Clear
3:15 PM 62.6 °F - 28.4 °F 27% 30.25 in 10.0 mi North 6.9 mph - N/A   Clear
3:35 PM 62.6 °F - 28.4 °F 27% 30.25 in 10.0 mi Calm Calm - N/A   Clear
3:55 PM 62.6 °F - 28.4 °F 27% 30.25 in 10.0 mi Calm Calm - N/A   Clear
4:15 PM 60.8 °F - 28.4 °F 29% 30.25 in 10.0 mi Calm Calm - N/A   Clear
4:35 PM 59.0 °F - 28.4 °F 31% 30.25 in 10.0 mi Calm Calm - N/A   Clear
4:55 PM 55.4 °F - 30.2 °F 38% 30.25 in 10.0 mi Calm Calm - N/A   Clear
5:15 PM 53.6 °F - 32.0 °F 44% 30.25 in 10.0 mi Calm Calm - N/A   Clear
5:35 PM 51.8 °F - 32.0 °F 47% 30.25 in 10.0 mi Calm Calm - N/A   Clear
5:55 PM 50.0 °F - 32.0 °F 50% 30.25 in 10.0 mi Calm Calm - N/A   Clear
6:15 PM 48.2 °F - 32.0 °F 54% 30.25 in 10.0 mi Calm Calm - N/A   Clear
6:35 PM 50.0 °F - 33.8 °F 54% 30.25 in 10.0 mi Calm Calm - N/A   Clear
6:55 PM 46.4 °F - 33.8 °F 62% 30.26 in 10.0 mi Calm Calm - N/A   Clear
7:15 PM 46.4 °F - 35.6 °F 66% 30.25 in 10.0 mi Calm Calm - N/A   Clear
7:35 PM 44.6 °F - 33.8 °F 66% 30.26 in 10.0 mi Calm Calm - N/A   Clear
7:55 PM 42.8 °F - 32.0 °F 66% 30.26 in 10.0 mi Calm Calm - N/A   Clear
8:15 PM 42.8 °F - 32.0 °F 66% 30.26 in 10.0 mi Calm Calm - N/A   Clear
8:35 PM 41.0 °F - 32.0 °F 70% 30.26 in 10.0 mi Calm Calm - N/A   Clear
8:55 PM 41.0 °F - 32.0 °F 70% 30.26 in 10.0 mi Calm Calm - N/A   Clear
9:15 PM 41.0 °F - 32.0 °F 70% 30.27 in 10.0 mi Calm Calm - N/A   Clear
9:35 PM 41.0 °F - 32.0 °F 70% 30.27 in 10.0 mi Calm Calm - N/A   Clear
9:55 PM 37.4 °F - 32.0 °F 81% 30.28 in 10.0 mi Calm Calm - N/A   Clear
10:15 PM 37.4 °F - 32.0 °F 81% 30.29 in 10.0 mi Calm Calm - N/A   Clear
10:35 PM 35.6 °F - 32.0 °F 87% 30.29 in 10.0 mi Calm Calm - N/A   Clear
10:55 PM 39.2 °F - 32.0 °F 75% 30.30 in 10.0 mi Calm Calm - N/A   Clear
11:15 PM 37.4 °F - 32.0 °F 81% 30.31 in 10.0 mi Calm Calm - N/A   Clear
11:35 PM 39.2 °F - 32.0 °F 75% 30.32 in 10.0 mi Calm Calm - N/A   Clear
11:55 PM 37.4 °F 34.9 °F 30.2 °F 75% 30.32 in 10.0 mi ESE 3.5 mph - N/A   Clear